Regional Weather Roundup
Issued by NWS

Home | Current Version | Previous Version | Graphics & Text | Print | Product List | Glossary On
Versions: 1 2 3 4 5 6 7 8 9 10 11 12 13 14 15 16 17 18 19 20 21 22 23 24 25 26 27 28 29 30 31 32 33 34 35 36 37 38 39 40 41 42 43 44 45 46 47 48 49 50
000
ASUS43 KDMX 230801
RWRIA

WEATHER ROUNDUP FOR IOWA
NATIONAL WEATHER SERVICE DES MOINES IA
200 AM CST THU NOV 23 2017

NOTE: "FAIR" INDICATES FEW OR NO CLOUDS BELOW 12,000 FEET WITH NO
SIGNIFICANT WEATHER AND/OR OBSTRUCTIONS TO VISIBILITY.

* - THESE STATIONS ARE NOT NWS STATIONS...THUS NOT UNDER NWS
QUALITY CONTROL.  THEY ALSO DO NOT REPORT WEATHER SUCH
AS PRECIPITATION OR FOG.

IAZ001>003-012>014-020>022-031>034-043>046-230900-
   NORTHWEST IOWA

CITY           SKY/WX    TMP DP  RH WIND       PRES   REMARKS
CARROLL *      CLOUDY    36  19  51 W14G24    29.94R WCI  27
CHEROKEE *     CLOUDY    31  21  66 SW3       29.95R
DENISON *      CLEAR     32  21  64 S5        29.97F WCI  27
LE MARS *      CLOUDY    28  21  74 S3        29.96R
ORANGE CITY *  CLOUDY    28  23  80 W6        29.94R WCI  22
SHELDON *      CLOUDY    25  18  74 SW5       29.92S WCI  19
SIOUX CITY     CLEAR     26  20  77 E3        29.97S
SPENCER        CLOUDY    25  18  74 SW3       29.92F
STORM LAKE *   CLOUDY    32  21  64 W12       29.93S WCI  23
$$

IAZ055>058-069>071-079>083-090>094-230900-
   SOUTHWEST IOWA

CITY           SKY/WX    TMP DP  RH WIND       PRES   REMARKS
ATLANTIC *     CLEAR     28  21  74 SW6       29.99S WCI  22
AUDUBON *      CLEAR     32  21  64 S5        29.97F WCI  27
CLARINDA *       N/A     30  21  69 S7        30.03  WCI  23
COUNCIL BLFS * CLEAR     34  23  64 SW10      29.98S WCI  26
CRESTON *      CLEAR     32  19  59 SW12      30.00F WCI  23
HARLAN  *      CLEAR     28  21  74 S6        30.01S WCI  22
LAMONI         CLEAR     31  19  61 S13       30.01F WCI  21
RED OAK *      CLEAR     30  21  69 S7        30.01S WCI  23
SHENANDOAH *   CLEAR     32  21  64 CALM      30.02F
$$

IAZ047>049-059>061-072>074-084-230900-
   CENTRAL IOWA

CITY           SKY/WX    TMP DP  RH WIND       PRES   REMARKS
AMES           CLEAR     28  20  71 S7        29.97F WCI  21
ANKENY *       CLEAR     32  18  55 S5        30.00F WCI  27
BOONE *        CLOUDY    32  18  55 SW9       29.94F WCI  24
CHARITON *     CLEAR     32  19  59 SW12      30.01S WCI  23
DES MOINES     CLEAR     33  18  53 S8        29.99F WCI  26
GRINNELL*      CLEAR     31  19  61 S7        30.01F WCI  24
KNOXVILLE *    CLEAR     36  16  44 SW12      29.99F WCI  27
MARSHALLTOWN   CLEAR     29  19  66 S8        29.97F WCI  21
NEWTON *       CLEAR     28  18  64 S6        30.00F WCI  22
PELLA *        CLEAR     33  18  54 S7        30.02F WCI  27
PERRY *          N/A     27  17  67 S6        29.96F WCI  20
$$

IAZ004>006-015-016-023>025-035-036-230900-
   NORTH CENTRAL IOWA

CITY           SKY/WX    TMP DP  RH WIND       PRES   REMARKS
ALGONA *       CLOUDY    27  19  74 S9        29.91F WCI  17
CLARION *      CLOUDY    25  19  80 S9        29.94S WCI  15
ESTHERVILLE    CLOUDY    26  19  74 W6        29.91F WCI  19
FORT DODGE *   CLOUDY    29  20  69 S9        29.94F WCI  20
MASON CITY     CLOUDY    23  17  78 S6        29.94F WCI  16
FOREST CITY *    N/A     27  19  74 CALM      29.93S
WEBSTER CITY * CLOUDY    28  18  64 S10       29.93S WCI  19
IOWA FALLS *     N/A     29  20  68 S8        29.96F WCI  21
$$

IAZ007>011-017>019-026>030-037>042-050>054-066-230900-
   NORTHEAST IOWA

CITY           SKY/WX    TMP DP  RH WIND       PRES   REMARKS
CEDAR RAPIDS   CLOUDY    33  18  53 S13       30.02F WCI  24
CHARLES CITY * CLOUDY    28  18  64 S10       29.95F WCI  19
CLINTON *      CLOUDY    33  20  58 S8        30.09F WCI  26
DECORAH *      CLEAR     30  18  59 S8        29.94F WCI  23
DUBUQUE        CLOUDY    32  19  58 S18       30.01F WCI  20
MONTICELLO *   CLOUDY    32  19  59 S12       30.03F WCI  23
OELWEIN *      CLEAR     30  19  64 S10       29.98F WCI  21
WATERLOO       CLEAR     30  16  56 S9        29.97F WCI  22
$$

IAZ064-065-067-068-078-230900-
   EAST CENTRAL IOWA

CITY           SKY/WX    TMP DP  RH WIND       PRES   REMARKS
DAVENPORT      CLOUDY    33  19  56 S14       30.10F WCI  23
IOWA CITY      CLOUDY    34  20  56 S6        30.07F WCI  29
MT. PLEASANT * CLOUDY    32  18  57 S10       30.09F WCI  24
MUSCATINE *    CLOUDY    32  21  64 S8        30.09F WCI  25
QUAD CITIES    CLOUDY    35  18  49 SW9       30.09F WCI  28
$$

IAZ062-063-075>077-085>089-095>099-230900-
   SOUTHEAST IOWA

CITY           SKY/WX    TMP DP  RH WIND       PRES   REMARKS
BURLINGTON     CLOUDY    33  21  61 S9        30.11F WCI  25
FAIRFIELD *    CLOUDY    36  16  44 S10       30.05F WCI  28
FORT MADISON * CLOUDY    34  21  60 S8        30.11F WCI  27
KEOKUK *       CLOUDY    34  19  55 S9        30.11S WCI  26
OSKALOOSA *      N/A     32  20  63 S10       30.03F WCI  23
OTTUMWA        PTCLDY    33  18  53 S9        30.03F WCI  25
WASHINGTON *   PTCLDY    32  19  59 S9        30.07F WCI  24
$$

ABBREVIATIONS USED IN REMARKS
   TC - TEMPERATURES IN CELSIUS
  WCI - WIND CHILL INDEX
   HX - HEAT INDEX
  VSB - VISIBILITY
$$





USA.gov is the U.S. government's official web portal to all federal, state and local government web resources and services.